CAN4157 CYFC-CYHZ

Flight info

Callsign CAN4157
Flight time 0h 48m
Altitude 9000
Route OMVEV DCT KELNO
Aircraft BE58/L-SDFGRY/C

Departure

Time 2026-05-04 23:43
Airport Fredericton International Airport (CYFC)

Arrival

Time 2026-05-05 00:31
Airport Halifax / Stanfield International Airport (CYHZ)
Time Latitude Longitude Altitude Speed Heading
2026-05-04 23:33 45.87209 -66.52948 58 ft 0 kts 92°
2026-05-04 23:41 45.87209 -66.52943 55 ft 4 kts 93°
2026-05-04 23:41 45.87169 -66.52915 58 ft 12 kts 199°
2026-05-04 23:41 45.87073 -66.52953 58 ft 16 kts 188°
2026-05-04 23:41 45.86957 -66.52971 57 ft 17 kts 186°
2026-05-04 23:42 45.86872 -66.53000 58 ft 12 kts 239°
2026-05-04 23:42 45.86734 -66.53486 94 ft 86 kts 248°
2026-05-04 23:42 45.86521 -66.54487 306 ft 117 kts 254°
2026-05-04 23:42 45.86330 -66.55673 518 ft 126 kts 254°
2026-05-04 23:43 45.86116 -66.56905 774 ft 128 kts 254°
2026-05-04 23:43 45.85871 -66.58141 1062 ft 129 kts 256°
2026-05-04 23:43 45.85620 -66.59380 1356 ft 129 kts 255°
2026-05-04 23:43 45.85359 -66.60604 1646 ft 127 kts 255°
2026-05-04 23:44 45.85158 -66.61815 1924 ft 123 kts 273°
2026-05-04 23:44 45.85509 -66.62909 2213 ft 126 kts 309°
2026-05-04 23:44 45.86322 -66.63458 2496 ft 137 kts 342°
2026-05-04 23:44 45.87289 -66.63135 2773 ft 155 kts 22°
2026-05-04 23:45 45.87944 -66.61824 3058 ft 171 kts 62°
2026-05-04 23:45 45.88268 -66.60162 3337 ft 175 kts 72°
2026-05-04 23:45 45.88536 -66.58460 3622 ft 175 kts 71°
2026-05-04 23:45 45.88817 -66.56760 3909 ft 175 kts 71°
2026-05-04 23:46 45.89110 -66.55064 4203 ft 175 kts 70°
2026-05-04 23:46 45.89416 -66.53380 4496 ft 174 kts 70°
2026-05-04 23:46 45.89726 -66.51703 4776 ft 173 kts 69°
2026-05-04 23:46 45.90039 -66.50038 5051 ft 172 kts 69°
2026-05-04 23:47 45.90351 -66.48382 5332 ft 171 kts 68°
2026-05-04 23:47 45.90661 -66.46739 5609 ft 171 kts 68°
2026-05-04 23:47 45.90973 -66.45094 5900 ft 170 kts 68°
2026-05-04 23:47 45.91282 -66.43455 6200 ft 170 kts 68°
2026-05-04 23:48 45.91590 -66.41822 6478 ft 169 kts 68°
2026-05-04 23:48 45.91898 -66.40193 6748 ft 168 kts 68°
2026-05-04 23:48 45.92203 -66.38575 7020 ft 167 kts 68°
2026-05-04 23:48 45.92403 -66.37508 7206 ft 167 kts 68°
2026-05-04 23:49 45.92801 -66.35395 7571 ft 164 kts 68°
2026-05-04 23:49 45.93096 -66.33823 7879 ft 161 kts 68°
2026-05-04 23:49 45.93387 -66.32279 8168 ft 159 kts 68°
2026-05-04 23:49 45.93578 -66.31255 8356 ft 156 kts 68°
2026-05-04 23:50 45.93855 -66.29769 8642 ft 152 kts 67°
2026-05-04 23:50 45.94125 -66.28325 8932 ft 147 kts 66°
2026-05-04 23:50 45.94413 -66.26828 8988 ft 165 kts 67°
2026-05-04 23:50 45.94740 -66.25142 9010 ft 187 kts 68°
2026-05-04 23:51 45.95098 -66.23247 9012 ft 205 kts 69°
2026-05-04 23:51 45.95476 -66.21212 9007 ft 216 kts 70°
2026-05-04 23:51 45.95861 -66.19114 8998 ft 223 kts 70°
2026-05-04 23:51 45.96261 -66.16935 8994 ft 228 kts 70°
2026-05-04 23:52 45.96670 -66.14720 8993 ft 230 kts 70°
2026-05-04 23:52 45.97082 -66.12484 8993 ft 232 kts 70°
2026-05-04 23:52 45.97498 -66.10233 8993 ft 234 kts 70°
2026-05-04 23:52 45.97916 -66.07975 8989 ft 234 kts 71°
2026-05-04 23:53 45.98334 -66.05715 8986 ft 234 kts 70°
2026-05-04 23:53 45.98752 -66.03453 8987 ft 234 kts 70°
2026-05-04 23:53 45.99168 -66.01193 8985 ft 234 kts 70°
2026-05-04 23:53 45.99586 -65.98929 8983 ft 234 kts 71°
2026-05-04 23:54 46.00003 -65.96664 8981 ft 234 kts 70°
2026-05-04 23:54 46.00422 -65.94395 8981 ft 235 kts 70°
2026-05-04 23:54 46.00839 -65.92126 8982 ft 235 kts 71°
2026-05-04 23:54 46.01256 -65.89852 8987 ft 235 kts 71°
2026-05-04 23:55 46.01673 -65.87575 9002 ft 235 kts 70°
2026-05-04 23:55 46.02091 -65.85296 9005 ft 236 kts 70°
2026-05-04 23:55 46.02743 -65.80656 8997 ft 240 kts 88°
2026-05-04 23:56 46.02533 -65.78278 9005 ft 240 kts 106°
2026-05-04 23:56 46.01888 -65.76093 8999 ft 236 kts 125°
2026-05-04 23:56 46.00883 -65.74270 8995 ft 232 kts 137°
2026-05-04 23:56 45.99842 -65.72491 9000 ft 233 kts 134°
2026-05-04 23:57 45.98843 -65.70646 9006 ft 234 kts 133°
2026-05-04 23:57 45.97857 -65.68779 9000 ft 235 kts 133°
2026-05-04 23:57 45.96864 -65.66920 9000 ft 234 kts 134°
2026-05-04 23:57 45.95861 -65.65076 9000 ft 234 kts 134°
2026-05-04 23:58 45.94868 -65.63263 8995 ft 234 kts 134°
2026-05-04 23:58 45.93858 -65.61433 9003 ft 234 kts 135°
2026-05-04 23:58 45.92825 -65.59628 9010 ft 234 kts 135°
2026-05-04 23:58 45.91838 -65.57820 9220 ft 226 kts 135°
2026-05-04 23:59 45.90895 -65.56056 9432 ft 220 kts 135°
2026-05-04 23:59 45.89968 -65.54342 9645 ft 215 kts 136°
2026-05-04 23:59 45.89049 -65.52667 9843 ft 212 kts 136°
2026-05-04 23:59 45.88135 -65.51019 10045 ft 210 kts 137°
2026-05-05 00:00 45.87226 -65.49385 10251 ft 209 kts 137°
2026-05-05 00:00 45.86612 -65.48284 10389 ft 209 kts 137°
2026-05-05 00:00 45.85419 -65.46139 10643 ft 207 kts 137°
2026-05-05 00:00 45.84526 -65.44535 10837 ft 205 kts 137°
2026-05-05 00:01 45.83637 -65.42938 10978 ft 208 kts 137°
2026-05-05 00:01 45.82708 -65.41290 10997 ft 216 kts 137°
2026-05-05 00:01 45.81750 -65.39584 11006 ft 223 kts 137°
2026-05-05 00:01 45.80771 -65.37833 11007 ft 227 kts 136°
2026-05-05 00:02 45.79779 -65.36053 11010 ft 229 kts 136°
2026-05-05 00:02 45.78780 -65.34258 11013 ft 231 kts 136°
2026-05-05 00:02 45.77773 -65.32447 11018 ft 233 kts 136°
2026-05-05 00:02 45.76759 -65.30625 11017 ft 235 kts 136°
2026-05-05 00:03 45.75738 -65.28794 11014 ft 236 kts 136°
2026-05-05 00:03 45.74714 -65.26960 11019 ft 236 kts 136°
2026-05-05 00:03 45.73686 -65.25121 11012 ft 237 kts 136°
2026-05-05 00:03 45.72658 -65.23281 11012 ft 237 kts 136°
2026-05-05 00:04 45.71631 -65.21444 11017 ft 236 kts 136°
2026-05-05 00:04 45.70604 -65.19615 11008 ft 235 kts 137°
2026-05-05 00:04 45.69568 -65.17816 11026 ft 235 kts 136°
2026-05-05 00:04 45.68553 -65.15983 11025 ft 235 kts 135°
2026-05-05 00:05 45.68225 -65.15387 11025 ft 235 kts 135°
2026-05-05 00:05 45.64274 -65.08323 11008 ft 234 kts 136°
2026-05-05 00:06 45.63254 -65.06516 11017 ft 234 kts 137°
2026-05-05 00:06 45.62232 -65.04711 11021 ft 234 kts 136°
2026-05-05 00:06 45.61210 -65.02897 11022 ft 234 kts 136°
2026-05-05 00:06 45.60190 -65.01087 11016 ft 234 kts 137°
2026-05-05 00:07 45.59171 -64.99281 11019 ft 234 kts 137°
2026-05-05 00:07 45.58151 -64.97475 11020 ft 233 kts 137°
2026-05-05 00:07 45.57137 -64.95667 11029 ft 234 kts 136°
2026-05-05 00:07 45.56120 -64.93860 11028 ft 233 kts 137°
2026-05-05 00:08 45.55095 -64.92065 11030 ft 234 kts 137°
2026-05-05 00:08 45.54416 -64.90874 11030 ft 234 kts 137°
2026-05-05 00:08 45.54071 -64.90266 11030 ft 234 kts 137°
2026-05-05 00:09 45.50313 -64.83641 11033 ft 234 kts 137°
2026-05-05 00:09 45.49302 -64.81859 11033 ft 234 kts 137°
2026-05-05 00:09 45.48276 -64.80053 11034 ft 235 kts 137°
2026-05-05 00:10 45.47249 -64.78246 11035 ft 235 kts 137°
2026-05-05 00:10 45.46220 -64.76439 11035 ft 235 kts 137°
2026-05-05 00:10 45.45192 -64.74629 11032 ft 235 kts 137°
2026-05-05 00:10 45.44163 -64.72822 11031 ft 235 kts 137°
2026-05-05 00:11 45.43134 -64.71020 11037 ft 235 kts 137°
2026-05-05 00:11 45.42104 -64.69215 11035 ft 235 kts 137°
2026-05-05 00:11 45.41076 -64.67415 11037 ft 234 kts 137°
2026-05-05 00:11 45.40050 -64.65618 11023 ft 233 kts 138°
2026-05-05 00:12 45.35848 -64.58267 11043 ft 233 kts 137°
2026-05-05 00:13 45.34673 -64.56216 11040 ft 233 kts 137°
2026-05-05 00:13 45.33649 -64.54430 11040 ft 233 kts 138°
2026-05-05 00:13 45.33316 -64.53852 11039 ft 233 kts 138°
2026-05-05 00:13 45.31709 -64.51054 11038 ft 233 kts 138°
2026-05-05 00:14 45.30683 -64.49269 11039 ft 233 kts 137°
2026-05-05 00:14 45.29657 -64.47487 11040 ft 233 kts 138°
2026-05-05 00:14 45.28632 -64.45705 11031 ft 233 kts 138°
2026-05-05 00:14 45.27610 -64.43930 11027 ft 232 kts 138°
2026-05-05 00:15 45.26590 -64.42162 11038 ft 231 kts 139°
2026-05-05 00:15 45.25569 -64.40395 11047 ft 232 kts 138°
2026-05-05 00:15 45.24549 -64.38615 11046 ft 233 kts 136°
2026-05-05 00:15 45.23767 -64.36560 11028 ft 241 kts 114°
2026-05-05 00:16 45.23304 -64.34269 11041 ft 242 kts 107°
2026-05-05 00:16 45.22931 -64.31940 11051 ft 243 kts 105°
2026-05-05 00:16 45.22572 -64.29598 11047 ft 243 kts 105°
2026-05-05 00:16 45.22202 -64.27257 11046 ft 243 kts 106°
2026-05-05 00:17 45.21815 -64.24919 11047 ft 243 kts 107°
2026-05-05 00:17 45.21415 -64.22587 11048 ft 244 kts 107°
2026-05-05 00:17 45.21003 -64.20256 11050 ft 244 kts 107°
2026-05-05 00:17 45.20585 -64.17927 11050 ft 244 kts 108°
2026-05-05 00:18 45.20162 -64.15600 11053 ft 244 kts 108°
2026-05-05 00:18 45.19743 -64.13303 11054 ft 244 kts 108°
2026-05-05 00:18 45.19310 -64.10963 10947 ft 249 kts 109°
2026-05-05 00:18 45.18859 -64.08531 10793 ft 254 kts 108°
2026-05-05 00:19 45.18410 -64.06097 10639 ft 257 kts 108°
2026-05-05 00:19 45.17962 -64.03669 10486 ft 259 kts 108°
2026-05-05 00:19 45.17501 -64.01165 10334 ft 260 kts 108°
2026-05-05 00:19 45.17049 -63.98718 10184 ft 260 kts 108°
2026-05-05 00:20 45.16590 -63.96235 10057 ft 261 kts 108°
2026-05-05 00:20 45.16130 -63.93753 9907 ft 261 kts 108°
2026-05-05 00:20 45.15670 -63.91271 9767 ft 261 kts 109°
2026-05-05 00:20 45.15203 -63.88792 9613 ft 260 kts 109°
2026-05-05 00:21 45.14742 -63.86312 9451 ft 260 kts 108°
2026-05-05 00:21 45.14285 -63.83830 9254 ft 262 kts 108°
2026-05-05 00:21 45.13824 -63.81344 8986 ft 259 kts 108°
2026-05-05 00:21 45.13369 -63.78901 8718 ft 255 kts 108°
2026-05-05 00:22 45.12918 -63.76487 8440 ft 253 kts 109°
2026-05-05 00:22 45.12766 -63.75675 8352 ft 252 kts 109°
2026-05-05 00:22 45.11545 -63.69192 7661 ft 252 kts 109°
2026-05-05 00:24 45.09415 -63.57899 6470 ft 250 kts 108°
2026-05-05 00:24 45.08966 -63.55524 6221 ft 250 kts 108°
2026-05-05 00:24 45.08522 -63.53174 5957 ft 242 kts 108°
2026-05-05 00:24 45.08103 -63.50945 5690 ft 234 kts 108°
2026-05-05 00:25 45.07686 -63.48748 5424 ft 229 kts 109°
2026-05-05 00:25 45.07206 -63.46629 5157 ft 223 kts 120°
2026-05-05 00:25 45.06349 -63.44803 4655 ft 225 kts 137°
2026-05-05 00:25 45.05394 -63.43001 4135 ft 231 kts 132°
2026-05-05 00:26 45.04488 -63.41159 3889 ft 220 kts 136°
2026-05-05 00:26 45.03416 -63.39839 3782 ft 192 kts 162°
2026-05-05 00:26 45.02232 -63.39225 3598 ft 174 kts 184°
2026-05-05 00:26 45.01077 -63.39162 3425 ft 161 kts 201°
2026-05-05 00:27 45.00028 -63.39560 3216 ft 153 kts 216°
2026-05-05 00:27 44.99123 -63.40295 3005 ft 148 kts 226°
2026-05-05 00:27 44.98284 -63.41147 2799 ft 150 kts 226°
2026-05-05 00:27 44.97431 -63.41983 2568 ft 148 kts 225°
2026-05-05 00:28 44.96596 -63.42805 2381 ft 143 kts 224°
2026-05-05 00:28 44.95813 -63.43567 2158 ft 131 kts 224°
2026-05-05 00:28 44.95108 -63.44258 2003 ft 116 kts 224°
2026-05-05 00:28 44.94473 -63.44903 1861 ft 109 kts 227°
2026-05-05 00:29 44.93875 -63.45526 1706 ft 105 kts 226°
2026-05-05 00:29 44.93276 -63.46099 1560 ft 104 kts 222°
2026-05-05 00:29 44.92689 -63.46679 1403 ft 100 kts 226°
2026-05-05 00:29 44.92143 -63.47237 1258 ft 96 kts 219°
2026-05-05 00:30 44.91604 -63.47724 1134 ft 89 kts 222°
2026-05-05 00:30 44.91128 -63.48222 1031 ft 82 kts 224°
2026-05-05 00:30 44.90643 -63.48708 926 ft 88 kts 214°
2026-05-05 00:30 44.90121 -63.49184 816 ft 91 kts 219°
2026-05-05 00:31 44.89616 -63.49733 697 ft 93 kts 223°
2026-05-05 00:31 44.89073 -63.50250 541 ft 87 kts 216°
2026-05-05 00:31 44.88657 -63.50653 447 ft 56 kts 216°
2026-05-05 00:31 44.88398 -63.50916 446 ft 39 kts 215°
2026-05-05 00:32 44.88290 -63.51040 444 ft 3 kts 320°
2026-05-05 00:32 44.88343 -63.51076 441 ft 13 kts 310°
2026-05-05 00:32 44.88397 -63.51177 441 ft 11 kts 306°
2026-05-05 00:32 44.88356 -63.51288 441 ft 19 kts 220°
2026-05-05 00:33 44.88241 -63.51407 446 ft 18 kts 212°
2026-05-05 00:33 44.88148 -63.51481 446 ft 13 kts 218°
2026-05-05 00:33 44.88046 -63.51593 446 ft 24 kts 215°
2026-05-05 00:33 44.87884 -63.51754 446 ft 32 kts 214°
2026-05-05 00:34 44.87727 -63.51909 446 ft 19 kts 214°
2026-05-05 00:34 44.87632 -63.52001 446 ft 13 kts 219°
2026-05-05 00:34 44.87647 -63.52102 446 ft 14 kts 265°
2026-05-05 00:34 44.87630 -63.52184 446 ft 4 kts 314°
2026-05-05 00:35 44.87632 -63.52185 446 ft 0 kts 351°